ONEWEB-0019 (45449 NORAD) Tracking and Keplerian Element Data

This shows tracking and keplerian element data for the satellite.

Feedback or suggestion? Click here.




ElementValue
Catalog45449
NameONEWEB-0019
Epoch Orbit3206
Epoch Day297.91667824
Epoch Year2020
RAAN71.6739
Inclination87.7848
Eccentricity0.002477
Argument of Perigee249.9654
Mean Anonmoly50.7667
Mean Motion13.97438799
Decay Rate-0.00017199
L11 45449U 20020AB 20297.91667824 -.00017199 00000-0 -12260-1 0 9994
L22 45449 87.7848 71.6739 0024770 249.9654 50.7667 13.97438799 32064

Live tracking and technical data element details for ONEWEB-0019 (NORAD 45449). ONEWEB-0019 can be tracked NOW for your location showing map with azimuth and elevation plus other details from your city location.

Track the satellite on the map from your city or location and see movement details for azimuth, elevation, latitude, longitude, range, height, and movement on the map or in text.







IsCatalogInMostPopularTable: catalog: 45449, numindb: 54
Update: records affected: 1



GetName: 45449 ONEWEB-0019

Hit Count: updated at: Sat, 24 Oct 2020 22:34:34 GMT